Theta_e
350 349 346 339 336 337 336 339 339 340 341 342 343 342 342 340 339 336 337 339 342 341 337 332 328 327 326 328 336 339 338 338 339 340 340 340 342 342 342 342 343 343 343 343 343 343 342 341 342 342 342 341 340 340 340 340 339 338 338 338 338 338 338 338 338 338 339 339 338 338 337 338 337 336 336 336 336 336 336 335 335 335 335 331 329
350 349 346 340 336 336 336 338 338 340 340 341 342 342 342 340 340 339 341 342 342 340 337 334 331 330 329 330 336 338 337 338 339 341 341 341 342 342 343 342 342 343 344 343 343 343 342 341 342 342 341 341 340 340 339 339 339 339 338 337 338 338 338 338 337 338 338 338 338 337 337 338 337 336 336 335 334 334 334 334 334 334 334 330 330
350 348 347 340 336 336 335 336 338 339 339 341 341 342 342 341 342 341 343 342 341 340 338 333 328 329 332 334 336 337 338 339 340 341 341 342 343 343 343 342 342 343 343 343 343 343 342 341 342 342 341 340 340 339 338 338 338 338 338 337 337 337 337 337 336 336 336 336 337 337 337 336 336 335 334 333 331 330 330 329 329 331 332 331 332
349 348 346 341 335 335 334 335 337 338 339 339 340 340 341 342 342 342 342 341 340 339 337 332 325 327 333 337 337 337 338 339 339 341 342 342 343 343 344 342 342 343 343 343 343 342 342 342 341 342 341 340 339 338 338 338 338 338 338 337 336 336 337 337 336 336 335 335 336 337 337 336 335 333 332 330 327 327 329 327 325 328 330 331 333
349 348 346 342 337 336 334 334 334 337 338 338 339 339 340 341 341 341 340 339 339 337 337 335 331 332 335 338 338 337 337 338 339 340 341 342 343 343 343 343 342 342 342 342 342 342 342 342 342 342 341 340 340 339 338 338 337 337 337 336 336 335 335 335 335 335 334 334 334 335 335 334 333 332 332 329 327 327 330 329 328 330 330 331 332
349 347 346 344 342 337 333 333 332 334 335 336 338 339 341 341 340 339 338 338 338 338 337 336 336 337 336 338 338 338 336 337 338 339 340 342 342 342 343 343 342 342 342 342 342 341 340 341 341 342 341 341 340 339 337 336 335 334 334 334 333 333 332 332 332 331 330 331 332 332 332 332 331 331 332 331 330 330 331 331 332 333 333 332 333
348 347 346 344 344 338 333 332 330 331 331 333 335 337 338 337 337 337 337 337 337 338 337 336 337 337 337 338 338 338 337 337 337 338 339 341 341 341 343 342 342 342 342 342 341 339 339 339 339 340 340 341 340 338 335 334 332 331 331 330 330 329 329 329 328 328 330 331 331 330 330 330 330 330 331 331 331 331 332 332 333 334 334 333 333
347 347 346 344 345 338 332 332 329 329 328 328 329 330 332 332 334 336 338 338 337 337 337 337 337 337 338 338 337 338 337 336 337 338 338 340 341 340 341 342 341 341 342 341 340 337 337 336 335 336 338 339 337 334 332 331 329 329 329 328 327 326 326 325 325 328 329 330 330 330 330 330 330 331 333 333 332 331 332 332 333 333 333 333 332
347 347 346 345 344 337 332 331 329 328 327 326 326 328 329 332 335 337 338 338 336 335 336 337 338 338 337 337 338 338 337 336 336 337 338 338 339 340 341 341 341 341 340 340 338 334 332 334 333 333 334 335 332 329 329 329 330 330 329 327 324 323 325 326 327 328 329 329 330 329 329 330 330 333 334 335 334 333 333 333 332 332 331 331 331
348 347 346 346 344 336 332 331 330 328 327 327 328 329 331 336 339 338 337 337 336 335 336 337 337 337 336 337 337 337 337 336 336 337 337 337 338 339 340 340 340 339 339 338 335 331 331 333 333 331 331 331 329 329 329 330 330 330 329 326 322 323 327 330 331 330 330 331 331 331 331 332 332 333 334 334 334 333 333 332 331 331 330 329 328
348 347 346 346 342 336 332 331 330 330 330 330 330 330 334 338 339 338 336 337 336 337 338 336 337 336 336 337 336 335 336 336 336 336 337 338 338 338 339 339 338 338 338 335 332 330 331 331 330 329 329 329 329 330 330 331 331 330 329 325 324 327 329 330 331 330 330 330 330 331 332 333 333 333 332 332 333 332 331 330 331 331 331 329 327
348 347 346 346 341 335 333 332 330 330 330 328 328 330 335 338 337 337 336 336 337 338 338 336 337 338 338 338 337 336 335 336 336 336 337 338 338 338 338 338 338 338 337 333 330 330 330 330 329 329 329 329 330 330 330 331 331 330 328 324 325 329 330 331 332 331 330 331 331 332 332 333 334 334 332 331 331 331 330 331 332 331 330 329 327
348 347 346 346 342 337 333 332 330 329 327 325 327 330 333 336 336 337 337 337 338 337 336 337 338 338 338 338 339 338 337 337 336 335 337 337 338 338 338 338 337 337 334 330 329 331 330 330 329 329 329 329 330 331 331 331 330 329 326 323 326 330 330 331 332 331 331 331 331 332 333 333 333 333 332 331 331 330 330 331 331 329 328 328 327
348 347 346 345 343 338 334 331 330 327 325 325 330 332 332 335 336 336 337 338 338 336 336 338 338 338 339 339 340 339 337 337 334 332 335 337 337 337 338 337 337 335 331 329 330 331 331 330 329 329 329 329 330 331 331 330 330 328 324 323 327 329 330 332 332 332 332 331 331 331 331 331 331 331 331 331 330 330 330 330 329 328 328 327 328
348 347 346 345 343 340 336 332 330 328 327 330 333 333 334 336 336 335 336 338 338 336 336 338 338 338 339 339 339 337 335 334 333 331 331 334 336 336 337 337 337 333 329 328 330 331 331 330 329 330 329 329 330 330 330 329 328 326 324 324 328 330 330 332 332 332 332 332 332 332 331 330 330 330 330 329 329 329 329 329 328 327 327 327 327
348 347 347 346 344 342 338 333 333 332 331 334 335 334 335 335 334 334 335 337 338 336 335 336 337 338 337 337 335 334 334 335 335 333 329 329 333 336 337 337 336 331 328 329 330 331 331 330 329 329 329 329 329 328 328 327 326 325 323 324 328 330 331 332 332 332 332 332 332 332 331 330 329 329 329 329 329 329 329 328 328 328 328 327 327
348 347 347 345 345 344 341 338 336 335 334 336 335 335 336 335 334 333 335 337 337 336 334 334 337 337 335 334 333 333 336 338 337 334 331 329 329 334 337 337 335 331 328 328 330 332 331 330 330 329 329 328 327 326 325 324 324 324 323 324 328 330 331 332 333 332 332 332 332 332 331 329 330 330 330 329 328 328 328 328 328 328 328 328 328
348 347 346 345 345 344 344 342 338 336 336 335 335 334 335 335 333 332 334 336 336 336 334 334 336 336 334 333 334 335 337 338 337 334 333 331 328 330 334 336 334 330 328 328 330 332 331 330 330 329 329 328 326 325 323 322 322 323 323 323 327 330 331 332 332 332 332 332 332 331 330 329 329 329 329 328 328 328 327 327 327 328 327 327 327
348 347 347 346 346 345 345 343 341 340 338 337 335 333 334 335 334 333 334 335 335 336 335 334 334 333 332 333 335 336 336 337 336 334 333 333 330 330 332 334 332 328 327 329 331 332 331 330 329 329 329 327 325 323 321 321 321 322 323 322 326 330 331 332 332 332 332 332 331 330 328 327 328 328 328 327 327 327 327 326 326 326 326 326 325
348 348 347 346 346 345 346 344 343 342 341 341 338 335 334 335 335 335 334 334 335 336 336 333 330 330 331 334 335 337 336 335 335 335 334 332 333 332 331 332 329 326 328 329 331 332 330 330 330 329 328 326 323 322 321 321 321 322 321 323 329 332 332 332 332 332 332 331 331 329 327 327 328 328 328 328 327 327 328 327 327 326 326 326 326
347 348 347 346 345 345 346 345 345 343 343 343 342 339 336 336 337 336 334 334 334 334 334 332 329 330 333 336 336 338 337 335 335 336 335 333 335 332 329 330 327 326 329 330 331 331 331 330 329 329 328 325 321 320 320 320 321 321 322 327 332 333 333 333 332 332 332 331 330 328 327 328 328 328 327 327 326 327 327 326 326 326 326 326 325
346 347 346 346 346 345 345 345 344 343 343 343 343 342 337 337 339 336 336 335 334 334 335 332 332 335 337 337 339 341 340 339 338 336 336 336 335 330 328 330 327 327 330 331 332 331 331 330 329 329 327 325 325 326 324 322 320 320 326 331 331 332 333 333 332 331 331 330 329 327 327 327 327 327 327 327 327 326 326 326 325 325 325 325 325
345 347 347 346 346 345 345 345 344 343 343 343 344 343 339 340 340 338 338 337 335 336 338 336 337 339 339 340 342 343 343 342 340 337 337 336 335 329 327 328 327 328 331 331 331 331 331 330 330 329 329 331 332 332 330 327 323 323 330 332 330 332 332 332 332 331 330 329 328 327 327 326 326 326 326 326 326 325 325 325 325 325 325 324 324
345 345 346 346 346 345 345 345 345 344 344 344 344 344 342 342 341 340 339 339 338 338 340 339 339 341 341 342 343 343 343 342 340 338 336 336 335 330 327 327 328 329 331 332 332 331 331 330 329 330 332 335 335 334 332 331 328 329 332 331 330 332 332 332 331 330 330 329 328 327 326 326 326 326 326 326 326 326 325 325 324 324 324 323 324
345 345 344 345 346 346 345 345 346 346 345 345 345 344 343 342 341 341 340 340 340 340 340 339 340 341 341 342 343 343 342 341 340 339 338 337 336 333 330 330 331 331 332 334 333 331 332 332 331 332 335 336 334 334 332 332 332 332 332 330 331 332 331 331 330 331 330 328 326 325 326 326 326 326 326 326 325 325 324 324 324 323 323 323 323
343 344 344 344 345 345 345 345 346 346 345 344 344 344 343 342 341 341 340 341 341 341 341 341 341 342 342 342 341 342 341 340 340 339 339 338 337 335 333 333 333 332 333 334 334 333 334 334 333 334 335 335 334 333 332 332 332 332 331 331 331 331 330 330 331 332 331 329 326 325 326 326 326 326 325 325 325 325 324 324 323 323 322 322 322
343 344 344 344 344 344 344 344 345 344 344 343 343 344 343 342 341 341 341 341 342 341 341 341 342 342 342 341 341 340 340 339 340 340 340 338 337 336 334 334 333 332 333 334 334 334 335 335 335 336 335 334 333 332 332 332 332 332 332 332 332 331 330 330 332 331 330 329 327 326 326 326 326 325 325 325 325 324 324 324 323 322 321 321 322
343 343 343 344 344 345 344 344 344 343 343 343 343 343 342 342 341 341 340 340 341 341 341 342 342 342 342 341 341 340 339 339 340 340 339 338 337 336 335 335 333 332 333 334 334 334 334 335 336 336 334 334 332 332 332 333 333 333 333 332 332 331 331 331 331 331 330 328 327 326 326 325 325 326 326 325 325 323 323 323 323 323 323 323 322
343 343 343 343 344 345 344 343 343 343 344 343 343 343 342 342 341 341 340 339 340 341 341 342 343 342 341 341 340 340 339 339 340 340 339 338 338 337 335 334 334 333 333 334 334 334 334 336 335 335 334 333 332 332 332 333 333 333 333 332 332 331 331 331 331 330 330 329 328 325 325 324 323 325 326 325 325 325 324 324 324 324 322 320 319
343 343 343 343 343 344 344 343 343 344 344 344 343 343 343 342 342 341 341 340 340 341 341 342 342 341 341 340 340 340 340 340 340 339 339 339 338 338 336 334 334 333 333 334 334 334 334 335 335 335 333 333 332 332 333 333 333 333 333 332 331 331 331 331 330 329 329 329 328 324 323 321 321 324 325 325 326 326 326 326 325 322 319 317 315
343 343 343 342 343 343 343 343 343 344 344 344 343 343 343 343 343 342 342 341 340 341 341 342 342 340 340 340 340 340 339 339 339 339 339 338 337 338 337 335 334 334 333 333 334 334 334 335 334 334 334 333 332 333 333 333 334 334 333 332 331 331 330 330 329 329 328 328 327 324 321 320 322 326 327 327 328 327 327 326 325 323 323 324 322
343 342 342 341 342 342 341 342 343 343 343 344 343 342 343 342 342 342 342 341 340 341 341 341 341 340 340 340 340 340 339 338 339 339 338 338 337 336 336 335 334 333 333 333 334 334 334 334 334 334 334 333 333 333 333 333 334 334 333 332 332 332 331 330 329 328 328 328 328 327 325 324 324 326 327 328 328 328 328 327 327 327 328 328 327
343 341 341 340 341 341 341 342 342 342 342 342 342 341 342 342 342 341 341 341 341 340 340 340 340 340 340 340 340 340 339 338 338 338 337 337 336 335 335 334 333 333 333 333 333 333 333 334 334 334 333 333 334 333 333 334 333 333 334 333 333 332 331 330 329 328 327 329 330 330 330 329 327 326 327 327 327 327 328 328 328 329 330 329 329
339 338 338 338 339 339 339 340 341 342 341 341 340 340 342 341 341 341 340 340 340 340 339 340 340 339 339 339 340 339 338 338 338 337 337 336 336 335 334 334 334 333 333 334 333 333 333 333 333 333 333 333 333 333 333 333 333 333 333 333 333 332 332 330 329 328 327 328 331 332 331 331 330 330 329 328 328 327 327 328 329 330 330 330 330
336 337 337 337 337 337 338 339 339 340 340 339 339 339 340 340 340 340 340 339 339 339 339 339 339 338 338 339 340 339 338 338 337 338 337 336 336 336 335 333 333 333 333 333 333 332 332 332 332 333 333 333 333 333 333 332 333 333 333 333 332 332 332 330 329 328 327 327 330 331 331 331 332 332 332 331 329 328 329 329 330 330 330 330 330
337 337 338 337 337 337 336 336 337 337 337 337 338 338 338 338 338 339 340 339 338 338 339 339 338 338 338 338 339 339 338 337 338 338 337 337 336 336 336 334 333 334 333 333 333 333 333 332 332 333 333 332 332 332 332 333 333 333 333 333 332 332 332 330 329 327 327 327 328 329 329 330 331 331 331 332 331 330 329 329 330 330 330 330 330
336 336 338 338 338 336 335 335 335 335 336 336 336 336 336 336 337 338 338 338 337 337 338 338 338 338 337 337 338 339 338 337 337 338 338 337 336 336 337 335 333 334 333 333 333 332 333 333 333 333 333 333 332 332 332 332 333 333 334 334 332 331 332 330 328 327 327 327 327 328 328 329 330 329 330 331 332 330 328 328 329 329 329 330 329
335 335 336 337 338 338 336 335 335 336 336 336 336 336 335 336 338 338 337 338 337 337 336 337 338 337 337 337 337 338 338 337 337 338 338 337 336 337 337 335 334 333 333 333 333 332 333 334 333 333 333 333 332 332 333 333 333 334 335 334 332 331 331 330 328 327 327 327 327 328 329 330 330 329 329 329 329 331 330 328 327 327 328 328 329
336 335 336 337 338 338 337 337 336 337 337 337 338 338 337 337 338 337 337 337 337 337 336 336 336 336 337 336 336 337 337 337 336 337 337 336 336 337 337 335 333 333 333 333 333 332 333 335 335 334 334 334 333 333 334 333 334 334 334 333 332 332 331 329 328 327 327 328 328 329 330 331 331 329 329 328 328 330 332 330 329 328 328 328 329
337 337 336 337 337 336 337 337 337 337 337 337 337 338 337 337 337 337 337 337 337 337 337 336 335 335 336 335 335 336 336 336 336 337 337 336 335 336 336 334 332 333 333 333 333 333 333 335 335 335 335 335 334 334 335 334 334 334 333 333 332 332 331 329 328 328 328 329 329 329 330 331 330 329 329 328 328 329 330 331 331 330 329 328 328
337 337 337 337 337 337 337 336 336 336 336 336 337 338 337 338 337 337 337 337 337 337 337 336 335 334 333 334 335 335 335 336 337 336 337 336 335 334 335 334 333 333 332 332 332 334 334 335 335 335 335 334 335 335 335 334 333 333 332 332 332 332 330 329 329 329 329 330 330 330 331 331 330 329 328 328 328 328 328 330 330 330 330 329 327
337 337 337 337 336 337 336 336 335 335 335 336 337 338 338 338 338 338 338 338 337 337 336 336 336 334 332 332 334 335 335 336 337 336 336 337 335 334 334 334 333 332 333 333 333 335 335 334 334 335 334 334 334 335 334 334 333 333 333 332 332 331 329 329 330 330 329 330 330 331 331 331 330 329 327 328 328 328 328 328 329 330 331 330 329
337 336 336 336 336 336 335 335 335 335 336 336 337 338 338 338 338 338 337 337 337 336 336 336 335 335 333 331 332 334 335 336 337 336 336 337 336 335 335 335 334 333 333 334 335 335 334 334 334 335 334 334 334 334 334 334 332 333 333 332 331 330 330 330 331 331 330 330 331 331 330 330 330 328 327 327 327 328 327 327 328 330 330 330 329
337 336 336 337 337 337 336 335 336 335 336 336 336 337 338 337 337 337 337 336 336 336 336 336 335 335 335 333 332 334 336 336 336 336 336 337 336 335 335 335 334 333 333 334 334 335 335 334 334 335 334 333 334 334 334 333 332 332 333 332 331 331 331 331 332 332 330 331 331 330 330 330 329 328 327 328 328 328 327 327 328 329 329 328 327
334 334 334 335 336 337 336 336 337 336 336 336 336 336 337 337 336 336 336 336 335 335 335 335 335 335 335 334 334 334 334 335 335 336 336 336 334 334 335 334 334 334 333 333 333 333 334 334 334 334 333 333 334 335 334 334 332 332 332 331 331 331 332 332 332 332 331 331 331 330 330 330 329 328 327 328 328 328 327 327 328 329 328 327 326
329 331 331 332 333 334 334 335 336 336 336 336 336 336 336 336 336 336 336 336 335 335 335 336 336 336 335 335 334 334 334 334 335 336 336 335 335 335 334 334 334 334 333 333 332 333 333 333 333 333 333 334 335 334 334 333 333 333 331 331 333 332 332 332 332 332 332 331 330 330 330 330 330 329 328 328 329 329 327 326 327 328 327 326 325
326 327 328 329 331 331 332 332 333 334 335 336 336 336 336 336 336 336 336 336 336 336 336 337 336 336 335 335 334 334 334 334 335 335 335 335 335 335 334 334 334 334 334 333 333 333 333 333 333 333 333 333 334 334 334 334 334 333 331 331 334 333 331 332 332 332 332 330 330 330 330 330 330 329 329 329 329 329 327 327 327 327 327 326 325
323 324 325 326 327 328 329 331 332 333 334 334 336 336 336 336 336 336 336 336 336 335 336 337 336 335 335 335 334 334 334 334 335 335 334 334 334 333 333 334 333 333 334 333 333 333 333 333 332 332 333 333 332 333 334 334 333 334 333 333 335 333 331 332 332 332 332 330 330 330 330 330 330 330 330 329 329 329 327 327 326 327 327 326 325
322 323 323 324 325 326 327 329 331 332 332 332 334 335 336 336 336 336 336 336 336 335 335 335 335 335 335 335 335 335 335 334 333 334 334 334 333 333 333 333 333 333 333 333 333 332 333 332 332 331 332 332 331 332 334 334 333 333 332 333 334 333 331 331 332 331 332 331 330 330 331 331 330 330 330 330 330 329 328 327 326 327 327 326 325
320 321 322 323 323 323 325 327 328 329 330 331 333 334 334 336 336 337 336 336 335 335 336 335 335 335 334 334 334 335 335 334 333 333 333 333 333 333 333 333 333 333 332 333 333 332 333 332 331 331 332 332 332 334 334 333 333 332 332 333 334 333 332 332 332 331 332 331 329 330 332 331 331 331 330 330 330 329 328 328 327 327 326 326 325
319 320 321 321 321 322 323 324 325 326 328 329 331 332 332 333 334 335 335 335 334 334 335 336 334 334 334 334 334 334 334 334 334 334 333 333 333 333 333 332 332 332 332 332 332 332 333 332 331 331 332 332 332 334 332 330 331 332 332 333 334 334 332 332 332 332 332 331 330 330 331 329 330 331 330 330 331 330 328 327 327 327 325 325 324
Wind_Speed
18 18 21 24 23 22 21 22 23 23 25 26 26 26 26 27 27 27 25 22 19 19 20 20 20 20 20 20 21 21 18 17 18 20 20 19 19 17 17 16 18 18 19 20 20 20 20 20 20 19 19 19 19 19 19 18 17 15 15 16 16 17 17 18 18 17 17 18 19 19 19 18 18 18 17 17 16 17 17 16 15 16 17 17 18
20 19 21 23 24 23 23 23 23 24 25 26 26 26 26 26 25 23 21 19 19 19 19 19 19 20 20 21 22 23 20 18 19 20 20 19 18 18 17 17 19 19 19 20 20 21 21 21 20 19 19 19 19 19 19 19 18 16 15 15 16 18 18 19 20 19 19 19 20 20 19 18 18 18 16 15 15 16 16 15 14 15 15 16 18
21 20 20 23 25 24 24 23 24 25 25 27 26 25 25 23 22 20 19 18 18 19 18 18 19 20 21 20 22 23 21 19 19 19 19 19 18 19 18 18 20 20 20 21 21 21 21 21 20 20 19 19 19 20 21 20 19 18 15 14 16 17 18 20 22 22 21 20 19 19 19 18 18 17 16 15 14 14 14 13 14 15 15 17 18
21 20 20 23 25 24 24 24 24 24 25 26 26 25 23 21 20 19 18 18 19 18 17 18 20 20 21 20 20 23 22 20 19 18 18 18 18 18 18 18 20 21 21 22 22 21 21 21 20 19 19 19 19 20 21 20 20 19 17 15 15 15 16 19 21 22 21 19 17 16 16 17 17 16 16 15 15 15 14 14 16 17 17 18 17
21 21 20 23 24 24 24 24 24 24 24 24 24 24 22 20 19 18 18 19 18 17 17 18 19 19 19 20 20 21 22 21 19 18 18 18 18 18 18 18 20 21 21 22 21 21 21 20 19 18 18 17 18 18 19 19 19 18 17 14 13 13 14 15 16 18 19 16 14 12 13 15 15 16 15 16 16 17 17 17 18 18 18 18 17
21 20 20 21 21 24 25 24 24 24 23 23 22 21 20 20 19 19 18 18 17 16 17 18 18 18 19 20 20 19 21 21 19 19 18 18 17 17 18 18 18 19 20 20 20 20 20 19 18 17 17 16 16 17 17 18 18 17 16 14 12 11 10 11 11 13 15 14 11 10 12 13 13 15 15 16 17 17 18 18 17 16 16 18 17
20 20 20 20 20 22 25 24 25 24 24 23 22 21 21 20 19 18 18 17 17 16 17 18 18 19 19 19 19 18 19 20 20 19 18 18 18 17 17 17 17 17 17 17 17 18 18 17 17 16 16 15 15 16 16 16 17 17 16 14 12 10 9 8 9 13 14 11 10 11 12 13 14 15 15 15 16 16 16 17 17 16 16 16 16
20 20 19 19 19 22 25 24 25 24 24 24 23 22 21 20 19 18 17 17 16 16 18 18 18 18 18 19 19 18 18 20 20 19 18 18 18 18 17 16 17 16 15 15 14 16 16 15 16 16 15 14 14 14 15 15 16 16 15 14 13 12 12 11 13 15 14 10 11 12 13 14 15 15 15 15 15 15 15 15 15 15 16 16 15
19 19 19 18 18 23 25 24 25 24 24 24 23 22 20 19 18 18 17 17 17 18 18 17 18 17 18 18 18 17 17 20 19 18 18 17 17 17 17 17 17 16 15 14 13 15 16 15 15 15 15 14 14 14 14 14 14 14 15 15 15 17 18 16 15 14 12 11 13 13 14 15 15 15 15 14 15 15 15 15 15 14 14 13 13
19 18 18 17 18 23 24 24 24 23 23 22 22 21 19 18 17 17 17 17 18 18 17 17 18 18 18 18 18 17 17 19 18 18 19 18 17 16 16 16 16 15 14 12 13 15 16 16 16 16 15 14 14 13 12 11 12 13 14 16 17 20 21 18 15 13 12 13 14 14 15 15 15 15 14 13 14 14 14 14 14 14 13 13 13
18 18 17 17 20 24 24 23 23 22 21 20 20 20 19 18 18 18 17 19 19 17 17 17 17 17 17 17 17 17 17 19 18 19 19 18 18 16 16 15 15 14 11 12 14 16 16 17 17 17 16 14 13 12 10 10 10 12 13 15 18 21 21 18 14 14 14 15 15 15 15 16 16 14 13 13 13 14 14 14 15 14 14 13 14
18 17 17 18 21 23 23 22 22 21 20 20 20 19 19 18 18 18 17 19 19 17 18 18 18 17 16 16 15 15 17 18 18 19 19 18 18 17 17 16 14 12 11 13 15 16 16 17 17 16 15 14 13 11 9 9 9 11 12 14 19 22 21 18 14 14 15 15 15 15 15 15 15 14 13 13 13 13 14 14 14 13 13 13 14
17 17 18 19 19 21 22 22 22 21 19 20 19 19 19 18 19 18 18 19 19 18 19 19 19 18 17 16 16 16 17 16 16 17 18 18 17 17 16 15 13 12 12 15 15 15 16 16 17 16 14 13 12 11 9 8 9 10 11 15 20 21 19 17 15 15 15 15 15 14 14 14 13 13 13 12 12 12 13 13 12 13 14 13 14
17 17 19 19 18 20 22 22 21 20 20 19 18 19 19 19 19 19 19 20 19 19 20 21 20 19 18 17 16 16 16 15 14 14 16 16 16 16 15 14 13 13 14 15 15 14 15 16 16 15 14 13 11 10 9 8 9 10 12 16 19 20 18 15 15 15 14 14 14 13 13 13 13 12 12 12 11 12 12 11 12 13 14 14 13
17 17 19 19 19 19 20 21 20 19 20 19 18 18 19 19 20 20 20 20 19 19 20 21 20 19 18 16 15 15 15 14 13 12 13 14 15 15 14 14 13 14 15 14 14 13 14 15 16 15 14 12 11 10 8 8 9 10 13 16 18 17 14 12 13 14 13 13 12 12 13 13 13 12 12 11 11 12 11 11 12 13 12 12 13
16 18 18 18 20 19 18 19 19 19 20 19 19 19 19 19 19 20 20 21 20 19 19 21 21 20 18 16 15 15 15 14 12 12 12 13 15 14 14 13 14 15 15 13 13 12 13 15 15 15 13 12 10 9 9 9 9 10 12 14 17 17 14 12 12 12 11 11 11 11 12 13 13 13 12 12 11 12 12 12 13 12 12 12 13
16 17 17 18 20 19 18 17 18 18 19 19 20 20 19 19 19 20 21 21 20 19 19 21 21 20 18 17 17 16 15 13 12 11 11 12 13 14 14 13 13 15 15 12 11 12 13 15 15 15 13 11 10 9 9 9 9 10 11 13 17 18 16 12 11 12 11 11 11 11 12 12 12 12 12 12 12 12 12 13 13 12 13 13 13
16 16 16 18 19 18 17 17 17 18 17 17 19 19 19 18 18 19 20 21 20 19 19 20 21 20 19 18 18 16 14 12 11 11 11 10 11 12 13 13 14 15 14 13 11 11 14 15 15 14 13 11 10 10 9 10 10 11 11 13 17 18 16 12 12 12 12 11 11 11 12 12 12 11 11 11 11 11 12 13 13 12 12 12 12
15 15 16 18 18 17 17 17 18 19 18 16 16 16 17 18 17 18 19 20 20 19 18 19 19 19 19 19 17 15 13 11 10 10 10 10 10 10 12 13 14 16 15 13 12 12 14 15 15 14 13 12 11 10 10 10 11 11 11 13 16 18 15 11 11 11 11 11 11 11 11 11 11 11 10 10 10 11 11 12 11 11 11 11 12
15 16 16 17 18 17 17 16 17 18 17 16 15 14 15 16 16 17 18 19 18 17 17 16 17 19 19 18 16 14 12 11 10 9 9 10 10 10 12 13 16 17 16 14 13 13 14 15 15 14 14 13 12 11 10 11 11 11 12 14 15 14 11 9 10 11 11 11 11 11 11 11 11 10 10 10 10 10 11 10 10 11 10 11 11
14 16 16 17 17 17 17 16 16 16 16 16 15 14 15 15 15 15 15 17 17 16 15 15 17 19 18 16 15 13 12 12 11 10 9 10 10 10 12 14 17 18 16 15 14 14 14 15 15 14 14 14 13 12 10 10 10 11 13 14 13 9 7 8 9 10 11 11 11 11 11 10 10 10 10 10 10 9 10 10 10 11 11 11 11
14 15 15 16 16 16 15 15 17 16 17 17 15 15 15 15 15 13 13 13 14 14 13 15 18 18 17 16 14 13 12 12 12 11 10 10 9 10 12 15 18 18 16 15 14 14 15 15 15 14 14 14 14 12 10 9 10 12 13 13 9 6 7 7 8 9 10 11 12 12 11 10 10 10 10 10 10 9 9 10 10 10 10 10 11
14 14 14 15 15 15 14 14 15 15 16 16 15 15 16 16 16 15 15 14 14 14 14 16 17 17 16 15 12 11 11 10 11 12 12 11 9 10 13 15 17 17 16 16 15 15 16 15 14 14 14 14 12 9 9 8 9 10 9 8 7 6 7 7 8 9 10 11 12 12 11 11 11 10 10 9 9 9 9 10 10 10 10 10 11
14 14 14 15 14 14 14 13 14 15 14 14 14 15 17 17 16 16 16 16 16 16 16 16 16 15 14 11 9 9 9 9 11 12 12 12 10 11 14 15 16 16 15 15 15 16 16 15 14 13 12 10 9 8 8 8 7 6 4 5 6 7 7 6 7 8 10 11 12 12 11 11 10 9 9 9 9 9 9 10 9 9 10 10 10
13 13 14 15 14 14 15 14 15 15 15 14 15 16 16 16 15 15 15 16 16 15 15 14 13 13 11 9 9 9 9 9 11 11 11 12 12 13 14 14 14 14 14 13 14 16 15 15 14 11 8 8 8 8 8 7 6 5 5 6 6 6 6 6 7 8 9 10 11 13 12 11 10 9 9 9 9 9 9 9 9 9 9 10 10
12 13 13 13 14 14 14 15 15 15 15 14 14 15 16 14 14 15 14 14 14 14 13 12 12 12 11 9 9 10 9 9 10 10 9 11 12 13 14 14 13 13 13 12 13 15 14 14 13 10 8 8 8 8 8 7 6 6 6 6 6 6 6 6 7 7 8 9 10 11 10 9 9 9 8 8 8 9 9 9 9 9 9 9 9
11 11 11 11 12 12 13 14 14 14 14 13 12 13 14 13 12 13 13 13 13 12 12 11 11 12 11 10 10 10 9 9 10 10 9 10 11 12 13 14 14 13 12 12 13 13 13 13 12 9 8 9 9 9 8 7 6 6 6 6 6 6 6 6 6 7 7 8 10 11 10 9 9 8 8 8 8 9 9 9 9 9 9 9 9
9 8 8 8 10 11 12 13 12 13 12 12 11 12 12 12 12 12 12 13 13 12 12 11 11 12 11 10 10 10 9 9 9 9 9 9 9 10 12 12 13 13 12 12 13 13 12 11 11 10 9 9 9 9 8 7 7 6 6 6 6 6 6 6 6 6 7 8 9 10 10 9 8 8 8 8 8 8 9 9 9 9 9 8 8
8 8 7 7 9 9 11 11 11 12 11 10 10 10 11 11 12 12 12 13 12 11 11 10 10 11 11 11 11 10 10 9 9 9 8 8 8 9 10 11 12 12 13 13 13 12 11 11 11 10 10 9 9 8 8 8 7 7 7 7 6 6 5 5 6 6 6 7 8 9 9 8 9 9 8 8 8 8 8 8 8 8 8 8 8
7 7 7 6 7 8 9 10 10 10 9 9 8 7 9 9 9 10 10 11 11 10 9 8 8 9 10 10 11 11 10 9 9 8 8 8 8 9 10 10 11 12 13 14 13 12 11 11 11 11 11 10 9 8 8 8 7 7 7 7 6 5 5 5 6 6 6 7 7 8 9 9 10 10 9 8 8 8 7 7 7 8 9 10 10
6 6 6 4 4 6 7 8 8 7 6 6 5 5 5 5 6 7 7 8 8 8 8 7 8 9 9 11 11 11 12 10 9 8 8 8 8 9 10 10 11 11 13 14 14 13 12 11 11 11 11 10 9 9 8 8 7 7 7 6 6 5 5 5 6 6 6 7 8 9 10 11 12 11 9 8 8 7 7 7 7 7 8 8 9
4 5 5 3 2 3 4 5 5 5 4 3 3 3 3 4 5 5 5 6 6 6 7 6 7 8 9 10 11 12 13 12 10 9 9 8 8 9 10 11 12 12 12 14 14 13 12 12 11 11 10 10 9 9 8 7 7 6 6 6 6 5 5 6 6 6 6 7 8 10 10 11 12 12 11 10 9 8 7 6 6 7 7 6 6
3 3 3 3 0 1 2 2 3 4 3 2 3 2 3 3 4 4 4 4 4 6 6 7 7 8 8 9 11 12 13 11 10 10 9 8 8 9 10 11 13 13 13 13 13 13 13 13 12 12 11 10 10 9 8 7 6 6 6 6 5 5 5 6 6 6 7 7 8 9 10 11 11 11 10 10 10 9 8 7 6 6 6 6 6
5 5 5 5 3 2 1 1 2 3 2 2 4 3 3 3 3 3 3 4 5 6 7 7 7 8 8 9 12 13 13 12 10 9 8 8 9 9 10 11 13 13 14 13 12 12 13 14 14 13 11 10 10 9 8 7 7 6 6 6 6 5 5 6 7 7 7 7 7 8 9 9 9 8 8 7 8 8 7 6 6 6 6 5 5
5 5 6 8 8 6 5 3 3 4 4 4 5 5 4 3 3 3 4 4 5 6 7 8 8 8 9 10 12 13 14 13 9 8 9 8 9 9 9 10 13 14 14 14 14 13 13 14 14 13 12 12 10 9 9 8 7 7 7 6 6 6 5 6 7 7 7 7 6 7 8 8 7 7 6 6 5 5 6 5 5 5 5 5 4
7 6 6 7 6 6 6 6 7 8 9 8 8 7 6 6 5 5 6 7 8 8 8 9 9 9 10 11 13 14 16 13 9 9 9 9 9 9 9 9 12 14 14 15 16 15 14 14 14 14 14 12 11 10 9 8 8 8 7 6 6 6 6 6 7 7 7 7 6 6 6 6 6 6 6 5 4 4 4 4 5 5 4 4 4
9 8 8 8 8 8 9 9 10 12 13 13 12 11 10 9 8 8 9 9 11 12 11 12 11 11 12 13 15 15 16 13 11 11 10 11 11 10 10 9 11 14 14 15 16 16 15 15 14 15 14 12 12 11 10 9 8 8 8 7 7 6 6 6 7 7 7 7 6 6 6 6 5 5 5 5 5 4 3 3 4 4 4 4 4
9 8 8 10 10 10 11 12 12 13 13 12 11 11 10 10 8 9 9 10 12 13 14 14 14 14 14 15 15 14 15 14 13 12 12 12 11 10 10 10 11 13 14 15 15 16 15 14 15 15 14 13 13 12 10 10 9 9 8 8 7 7 6 6 7 8 8 8 7 7 7 6 5 5 4 5 5 4 3 3 3 3 4 4 4
7 8 7 8 9 8 10 10 9 9 9 8 7 6 7 8 8 8 9 11 13 13 15 15 15 14 14 14 13 14 16 15 14 13 13 12 11 11 11 11 12 13 15 16 16 17 15 14 14 15 14 12 12 11 10 10 9 8 9 9 8 8 7 7 8 8 8 8 8 8 7 6 5 5 5 4 4 5 5 4 4 4 5 5 5
4 5 6 7 8 8 7 6 6 7 7 7 7 7 8 9 9 9 10 14 15 15 15 16 15 15 14 13 13 14 15 14 15 14 13 13 13 13 12 12 13 13 14 16 17 17 16 14 14 14 14 12 10 11 10 10 9 8 9 9 9 9 8 9 9 8 8 9 9 8 7 6 6 5 5 3 3 4 5 6 5 4 5 6 6
2 0 2 3 4 4 4 3 3 4 5 8 9 10 11 11 11 12 14 15 16 16 16 15 15 15 15 14 14 15 14 13 16 15 13 13 14 15 15 14 13 13 13 15 17 16 15 15 14 14 14 13 11 11 12 11 10 9 8 9 9 9 9 10 10 10 9 9 9 8 8 7 7 6 5 4 4 4 5 6 6 6 6 7 8
4 2 1 1 1 2 2 1 1 1 4 7 8 8 10 11 11 12 14 14 14 15 16 15 14 14 15 15 16 15 15 15 16 17 15 13 15 17 16 15 15 14 13 13 14 14 15 15 15 14 14 13 12 12 14 14 12 11 10 9 8 9 10 10 10 10 10 9 9 8 8 8 7 7 6 5 5 5 5 6 6 7 7 8 8
5 4 2 1 1 1 2 2 1 2 4 6 7 8 9 10 11 13 14 13 12 12 13 13 13 14 15 16 16 15 15 16 17 18 16 14 15 16 16 16 17 17 15 14 13 13 15 17 17 16 14 13 13 13 16 16 14 12 11 8 7 8 8 10 11 11 10 9 9 9 8 8 8 8 7 6 6 6 5 5 6 7 8 8 8
9 8 6 4 3 3 4 3 3 3 4 5 6 8 8 9 10 12 13 12 12 11 12 13 13 14 15 17 17 16 16 18 20 19 17 15 16 17 17 18 19 20 20 18 16 15 16 17 18 17 15 15 15 15 17 19 16 13 10 7 7 8 6 9 12 11 11 10 9 10 9 9 9 9 8 7 8 7 6 6 6 8 8 8 7
14 12 11 10 8 6 5 3 3 2 3 4 5 6 7 8 9 10 10 11 12 13 14 14 13 14 15 16 17 17 17 19 20 19 18 19 19 18 19 21 22 23 24 23 20 19 19 19 20 19 18 18 16 15 15 18 18 16 13 7 4 6 5 9 13 11 12 12 10 11 10 9 10 9 9 8 9 8 7 7 7 8 8 8 7
15 14 12 12 11 11 9 7 5 3 1 2 4 5 7 9 9 9 9 9 10 13 14 13 12 12 14 15 16 17 17 18 19 19 19 20 19 18 19 22 24 24 26 27 25 22 22 22 23 23 22 20 17 15 15 17 18 18 18 11 2 3 5 9 9 7 10 12 11 12 11 10 10 10 9 9 9 9 8 8 8 8 8 8 8
15 14 13 13 12 12 11 9 7 5 3 2 3 5 7 9 9 10 10 10 11 14 13 12 11 11 12 14 15 15 16 17 17 18 19 19 18 18 20 23 24 25 25 27 26 25 24 24 24 25 24 22 18 16 15 16 17 17 20 15 6 5 6 8 8 6 7 10 12 13 12 11 11 10 10 10 10 10 9 9 8 9 8 8 8
14 14 13 13 13 12 11 9 8 6 6 4 3 5 8 9 9 10 11 11 13 14 12 11 12 12 11 12 13 13 13 14 16 17 17 18 18 19 20 21 22 24 26 26 27 27 25 24 25 24 24 24 22 19 17 17 18 16 17 16 12 9 8 9 10 8 6 6 9 12 12 12 12 11 10 10 10 10 10 10 9 9 9 9 8
15 14 13 13 12 12 11 10 9 8 7 7 6 6 7 8 8 9 11 12 12 12 11 10 10 11 11 12 12 11 11 13 15 17 17 17 18 18 19 20 20 21 23 25 27 27 25 25 27 25 24 25 24 22 18 17 19 17 16 16 14 12 11 10 11 11 10 7 7 9 12 13 12 12 12 10 10 11 11 10 9 9 9 9 8
16 15 15 14 14 13 13 12 11 10 8 8 9 9 8 6 7 9 11 13 13 12 11 10 9 10 11 11 11 10 10 12 14 17 18 18 19 18 18 19 20 20 22 24 26 26 25 26 27 27 25 23 23 23 19 18 18 17 17 16 15 14 13 11 11 13 12 10 8 9 14 15 12 12 13 12 12 12 12 12 10 10 10 9 9
16 16 16 16 15 15 14 13 13 12 11 11 10 9 9 7 6 8 10 12 13 13 12 12 11 10 10 11 11 11 11 13 12 14 17 19 18 17 18 20 19 20 23 25 26 27 26 27 27 27 26 24 22 21 20 19 18 17 17 17 16 15 14 12 12 12 11 10 8 8 13 16 13 13 14 14 13 13 13 12 11 10 10 9 9
Wind_Direction
153 150 149 162 160 159 159 157 158 156 156 154 153 152 153 154 153 153 152 149 144 138 135 133 132 130 125 122 120 123 123 118 119 116 114 116 114 110 108 107 108 107 105 105 103 103 103 104 103 102 101 101 101 101 100 101 99 97 97 94 94 95 93 95 96 97 94 92 94 95 91 90 91 91 89 87 85 84 79 74 71 69 68 65 65
152 149 149 161 161 161 159 158 157 155 155 153 153 151 151 151 150 151 149 144 139 136 135 134 132 130 126 124 125 127 123 118 117 116 119 117 113 108 107 108 109 107 107 106 104 104 103 103 102 102 102 101 102 102 102 102 103 99 96 97 95 92 93 96 98 98 97 95 95 96 95 92 91 88 86 84 84 89 90 88 80 71 68 67 69
149 148 148 159 162 161 161 160 157 155 153 153 153 150 148 147 147 147 143 139 138 137 136 134 133 132 128 126 127 128 126 123 120 120 121 116 111 108 108 110 110 109 108 106 105 104 102 101 100 101 101 103 103 102 103 101 102 100 97 99 96 93 93 97 99 99 97 95 92 90 90 87 83 80 80 80 78 80 83 86 82 77 76 73 71
148 147 149 160 163 163 163 162 159 157 154 153 153 151 148 145 145 142 140 138 138 138 135 134 135 132 128 127 130 131 129 127 123 119 118 116 113 110 109 111 111 110 109 107 105 103 102 101 99 100 100 102 102 101 102 101 100 100 100 98 95 94 95 99 101 100 94 88 85 84 84 80 75 73 74 74 72 73 74 75 76 79 81 79 76
149 147 150 157 162 165 165 164 162 159 156 153 152 151 150 147 145 142 140 139 138 138 135 134 133 130 129 130 131 130 130 128 123 121 120 118 114 112 112 111 112 111 110 109 106 103 102 100 99 99 100 100 100 100 101 101 101 101 103 100 96 93 95 100 102 100 93 84 83 85 83 79 75 73 74 76 76 75 77 77 75 77 81 82 79
148 148 151 154 158 165 166 165 163 160 157 153 149 147 146 145 143 142 141 140 139 136 134 135 130 129 130 130 130 130 132 131 127 125 124 121 116 114 114 112 112 110 109 108 105 105 102 100 101 100 101 101 100 100 100 100 101 102 102 101 98 92 92 95 95 95 90 86 88 89 84 84 84 79 77 79 80 77 79 81 81 81 83 84 81
149 149 151 154 154 165 166 165 164 161 158 154 150 146 145 144 142 141 140 139 139 135 134 133 129 129 130 129 130 131 134 133 130 128 127 125 121 118 116 114 113 110 107 104 103 105 102 101 105 105 103 102 102 101 101 101 101 101 100 98 96 91 87 85 84 82 78 79 86 88 87 89 90 87 86 86 88 88 90 90 89 86 83 82 80
151 152 151 153 154 165 166 165 164 162 160 158 155 152 150 147 144 141 138 138 137 135 133 129 127 129 130 131 131 132 136 136 132 130 131 129 127 124 121 118 116 113 110 106 107 109 104 104 107 108 107 106 103 103 104 103 101 99 97 95 95 97 93 87 84 79 75 77 82 85 89 92 91 93 94 93 92 91 90 88 88 88 83 80 78
151 153 151 151 155 164 165 165 165 165 164 162 161 158 155 149 143 141 139 139 137 134 130 129 130 130 131 131 132 132 136 138 135 133 134 134 132 128 126 125 121 120 120 117 118 115 108 107 107 107 109 107 103 104 104 101 98 95 94 94 99 105 100 92 86 81 82 84 85 86 90 94 95 96 95 93 93 93 92 87 84 85 84 84 83
149 152 152 149 154 162 163 164 164 164 164 164 163 159 154 146 141 140 141 140 136 132 131 132 132 130 130 131 133 134 137 142 139 137 138 139 138 133 131 131 129 127 125 126 125 115 109 110 107 104 105 105 103 103 101 98 94 92 94 96 103 107 100 95 91 88 89 90 89 89 91 94 97 99 99 97 96 98 100 96 89 84 84 85 82
148 150 150 146 156 162 162 163 161 161 160 160 160 157 151 145 142 141 142 140 134 133 134 133 131 128 128 128 131 133 140 147 142 141 142 140 141 139 136 136 135 130 126 130 122 110 108 112 108 102 102 104 105 104 102 98 94 93 94 98 105 105 98 95 95 95 93 93 94 93 93 94 96 100 102 101 97 94 94 95 93 89 91 88 79
147 147 147 148 158 160 160 160 159 160 157 157 158 156 151 147 145 143 141 139 136 136 136 134 133 132 130 129 130 129 137 145 145 147 146 143 145 146 142 138 135 133 133 131 117 108 111 113 109 104 103 104 105 106 104 100 97 94 93 99 105 103 98 97 98 98 97 96 96 98 96 94 97 98 96 98 98 95 94 95 96 94 93 88 81
148 148 147 147 157 159 159 159 160 161 158 159 158 157 153 149 145 142 141 139 140 140 138 137 136 134 132 133 136 135 137 143 145 149 152 150 151 151 146 139 139 143 140 127 112 108 111 113 111 107 106 105 106 109 108 105 103 99 97 104 108 105 101 102 102 100 100 100 100 101 99 98 100 98 95 96 96 97 98 98 98 93 86 85 86
150 150 146 145 155 160 161 160 163 162 161 162 158 157 153 149 145 144 144 143 145 143 142 141 139 136 135 139 143 143 142 141 139 144 154 157 157 154 148 144 146 150 140 122 110 110 113 114 114 110 106 104 107 112 114 112 109 106 106 109 108 104 102 104 104 103 102 102 103 103 103 105 106 103 101 99 98 100 100 97 95 90 86 90 93
151 150 146 146 153 159 163 163 165 164 163 162 156 155 151 148 148 146 147 148 150 147 146 145 142 140 142 147 146 144 141 140 138 141 151 158 158 153 151 150 150 151 139 121 113 114 116 119 118 112 104 101 106 114 117 117 116 115 116 116 110 104 103 104 104 103 103 103 103 103 103 108 112 109 106 104 102 103 100 96 92 90 90 94 94
152 150 148 149 151 155 160 163 166 164 162 158 154 153 150 151 151 150 151 153 154 151 150 149 146 146 149 148 144 145 143 141 142 142 145 155 159 154 152 152 153 150 136 123 120 121 122 124 122 114 105 102 105 112 116 118 121 122 123 120 115 110 107 105 103 102 101 102 102 103 103 109 113 110 108 107 103 101 99 97 94 93 91 90 91
151 151 150 150 151 154 157 162 166 163 160 157 155 155 152 153 152 154 156 156 157 154 154 153 152 153 151 146 145 148 147 145 146 145 143 149 159 157 154 154 156 149 136 128 127 128 128 126 123 116 109 106 107 111 114 118 122 126 126 122 121 114 107 103 101 99 98 97 98 100 103 109 110 107 106 104 101 100 98 99 97 95 93 91 92
150 152 152 152 154 156 157 162 161 160 160 158 157 158 156 155 154 156 157 157 159 157 156 158 158 155 150 147 147 149 150 150 149 149 144 144 156 158 156 160 160 150 140 136 135 137 134 130 126 118 111 109 109 111 114 117 119 123 122 122 121 109 100 99 98 98 95 93 93 95 103 111 108 102 100 99 102 101 100 101 100 99 99 96 96
152 156 156 156 158 157 159 161 157 158 158 155 158 159 158 157 156 157 159 159 160 160 159 161 161 154 150 149 149 150 152 155 156 155 152 149 151 158 162 163 160 152 146 143 141 144 141 135 130 121 112 108 109 111 115 116 117 118 116 119 110 94 89 94 97 97 93 92 92 96 105 108 103 100 100 100 100 99 100 102 100 101 100 97 96
154 160 162 161 163 161 160 161 161 161 155 151 155 157 160 159 159 160 161 163 163 162 161 161 159 155 153 152 150 152 153 157 162 163 160 152 148 163 170 164 159 154 150 146 146 150 147 139 133 124 112 106 107 111 115 117 117 113 114 112 94 78 85 96 97 96 94 95 97 100 106 104 103 105 104 100 97 97 100 99 96 96 96 94 95
159 165 168 167 168 165 163 166 166 165 158 152 152 157 161 158 159 161 161 165 166 163 159 156 156 157 155 154 155 156 156 157 160 160 160 155 155 169 171 162 160 157 152 149 151 154 150 142 135 125 114 108 106 107 112 115 115 114 111 98 79 78 97 98 98 98 98 100 101 105 106 105 107 106 104 103 101 99 98 96 95 96 96 94 94
166 169 171 171 170 167 168 170 168 168 162 154 154 159 159 157 161 160 159 164 165 162 156 155 159 162 162 160 162 164 161 158 158 156 153 155 160 166 164 162 162 159 153 152 156 156 151 145 138 129 119 106 102 108 114 113 114 111 98 82 80 100 102 98 101 100 102 104 108 112 112 111 108 106 106 107 105 102 100 98 98 98 98 97 97
172 169 170 173 171 168 170 169 168 170 163 156 160 161 158 161 165 163 164 164 164 165 164 165 169 171 169 167 169 171 165 159 158 155 152 155 161 162 162 164 163 160 155 154 157 156 151 147 143 133 116 100 106 123 125 124 123 106 84 80 101 109 100 101 100 98 104 107 113 116 115 115 112 111 112 110 107 104 103 103 103 101 100 98 98
178 172 171 173 171 168 168 170 170 171 168 163 165 165 164 165 168 169 171 170 168 172 175 177 178 175 172 173 177 175 170 164 160 160 158 158 159 157 160 163 161 159 155 154 158 157 151 151 147 134 118 112 127 135 130 136 138 121 98 106 113 106 101 99 95 99 104 106 118 121 114 116 117 116 115 112 109 107 106 104 104 104 104 101 99
179 174 174 174 171 167 168 172 172 173 174 170 168 169 170 169 172 173 173 175 175 178 181 182 180 176 176 182 183 178 176 172 165 166 163 159 156 152 156 159 159 159 155 156 159 156 153 156 156 146 141 142 139 133 132 137 139 135 124 118 114 108 102 98 97 100 102 106 121 125 120 122 120 116 116 115 115 113 111 110 109 108 108 107 104
181 175 177 176 172 172 172 173 176 179 180 178 172 171 173 173 176 176 175 179 180 181 182 181 179 177 182 188 185 182 184 182 176 174 173 170 163 156 157 159 161 166 168 167 163 158 160 166 168 168 162 148 138 134 133 132 132 130 123 120 117 110 103 103 103 101 104 110 119 120 118 122 124 124 122 118 118 116 115 115 114 113 112 110 107
183 177 177 172 173 177 177 176 179 184 185 184 177 173 176 175 178 181 182 182 180 181 183 180 179 180 184 185 184 186 188 188 186 184 185 183 174 165 162 163 167 175 184 181 174 174 176 175 175 173 162 151 144 138 134 132 129 125 122 121 114 111 108 107 106 106 110 115 124 128 128 130 128 126 124 122 122 121 120 119 117 115 111 108 106
186 177 176 170 175 179 179 179 181 186 187 185 181 180 179 177 179 184 190 189 184 188 188 182 181 181 184 186 186 188 190 191 191 191 193 188 181 174 168 169 172 180 190 188 187 188 185 181 176 169 164 157 149 142 139 135 131 127 122 117 112 108 106 107 109 111 114 117 128 138 142 143 135 125 123 126 124 120 120 118 116 112 106 108 109
189 176 177 179 183 183 184 185 185 188 189 187 187 185 183 183 185 187 194 194 193 197 193 187 184 184 187 188 188 191 194 195 194 193 193 188 183 181 177 176 177 181 187 191 193 192 190 185 175 169 167 161 154 149 145 141 138 135 128 120 114 108 104 107 112 113 117 121 129 138 143 143 137 130 126 126 121 118 115 112 114 116 117 119 114
192 182 182 183 187 189 189 190 190 189 187 190 188 184 184 188 192 192 193 194 199 203 197 194 194 193 194 193 194 197 199 200 199 196 193 190 188 188 186 183 182 181 185 193 196 196 195 186 177 175 171 165 160 154 151 150 148 144 138 131 123 118 112 111 114 115 117 120 127 138 143 138 130 126 123 122 119 119 119 118 123 127 122 112 105
191 185 185 180 189 196 194 193 192 188 187 192 183 181 189 195 199 197 198 202 207 208 205 204 205 206 204 197 197 203 205 203 201 201 198 197 196 196 193 189 190 186 187 194 197 198 198 191 185 181 174 169 163 159 160 157 155 151 143 137 134 130 123 121 121 118 119 121 124 133 141 139 131 127 128 127 122 121 125 128 128 125 116 102 93
189 187 183 160 181 202 199 199 195 192 193 188 178 191 211 210 208 209 216 216 219 222 219 215 215 218 213 204 203 208 210 205 199 202 205 204 204 205 201 198 199 195 193 195 197 201 201 197 193 186 180 172 164 165 167 166 163 157 148 143 140 135 131 134 132 128 128 127 129 134 139 139 133 132 135 136 132 132 134 134 130 123 118 114 103
158 156 144 115 100 223 198 203 195 199 202 197 192 206 224 218 214 220 232 233 237 244 239 233 230 230 224 216 215 215 214 210 200 198 208 212 208 208 206 205 203 198 197 197 197 202 203 199 195 193 187 178 172 171 171 171 167 160 155 151 146 142 140 142 140 142 142 138 140 141 142 141 135 131 133 135 136 140 143 143 140 135 132 133 127
58 94 123 130 154 156 147 183 191 194 193 202 202 209 224 223 221 224 233 243 251 256 252 249 248 245 243 237 233 226 219 211 198 196 210 217 213 209 209 209 204 197 197 197 195 200 203 201 197 196 192 187 182 177 177 176 169 167 164 159 154 150 150 150 149 152 152 149 148 148 148 148 144 140 139 142 145 149 152 155 154 153 158 155 143
80 121 158 157 162 153 148 166 183 194 196 202 203 213 223 227 238 228 216 226 245 256 258 255 253 252 251 250 246 237 228 215 196 198 209 216 218 214 214 212 203 197 199 199 196 197 201 202 201 198 195 195 191 185 184 181 176 177 175 169 160 156 159 156 156 159 160 159 157 157 157 155 152 149 147 149 156 164 170 176 177 173 175 171 164
128 137 157 149 152 160 172 181 184 189 196 200 201 205 212 219 229 223 215 217 224 234 243 243 241 243 244 247 250 245 240 227 203 203 209 213 219 218 219 216 205 201 203 201 199 199 200 201 203 202 199 198 196 193 188 185 184 180 177 176 167 164 168 162 162 166 166 165 164 165 168 164 160 155 151 149 157 172 177 183 185 183 186 186 181
121 131 149 153 162 177 190 196 194 192 193 197 201 207 211 218 222 220 220 221 222 223 226 229 227 226 227 235 244 245 242 232 212 207 207 209 216 223 222 212 207 207 205 203 204 204 202 201 202 204 204 201 199 196 191 187 183 179 176 176 172 170 172 166 167 171 171 170 168 172 177 173 172 168 161 156 156 162 163 170 174 176 187 194 188
118 135 155 164 169 176 187 197 203 201 199 201 206 213 217 218 221 226 229 231 232 231 228 226 223 222 220 223 233 239 235 228 220 214 211 211 212 221 222 209 206 208 206 206 209 210 206 203 203 203 204 207 205 198 193 187 179 179 177 174 175 175 175 170 172 178 177 174 173 177 180 179 179 177 172 166 159 157 156 158 163 170 174 175 172
121 146 162 167 170 179 190 197 202 197 199 210 211 221 230 228 233 244 248 245 242 241 238 234 231 229 225 222 226 236 238 233 229 226 222 218 212 216 222 215 207 202 203 206 212 214 209 206 206 203 203 209 209 199 190 181 175 179 178 175 180 181 178 174 180 187 181 177 178 180 183 183 180 174 169 172 167 162 162 163 173 173 162 158 156
128 157 165 167 175 185 189 192 194 180 182 197 196 204 223 234 240 243 246 247 244 243 245 245 244 243 239 233 227 233 240 237 234 235 231 226 220 220 225 224 212 202 204 208 210 213 208 206 209 205 201 201 199 191 180 171 168 171 172 177 186 189 182 178 186 191 184 181 180 182 184 180 180 175 165 170 179 172 166 168 177 171 153 146 142
105 162 197 197 198 196 185 183 190 175 183 200 201 203 212 221 227 229 234 240 240 241 247 250 249 248 246 241 235 232 232 230 232 234 232 228 225 223 223 223 216 209 213 214 212 212 207 205 208 207 203 199 191 183 178 173 168 166 172 182 190 194 187 182 189 193 188 183 179 182 183 181 181 176 166 167 177 180 173 168 170 164 149 139 133
73 42 328 286 241 212 204 204 205 205 212 215 213 211 216 220 221 227 234 239 241 241 246 251 250 249 247 243 240 238 231 227 230 229 226 224 226 228 224 221 219 217 220 220 216 212 206 204 205 204 204 203 199 187 180 180 182 181 180 182 184 190 192 191 197 197 190 182 180 185 184 186 186 175 168 170 175 178 176 170 163 156 150 145 140
78 72 50 5 254 251 296 306 288 255 235 222 220 223 227 228 229 232 235 239 244 246 249 251 249 247 243 241 241 242 237 231 230 230 227 221 223 225 219 217 220 220 222 223 219 213 209 207 206 204 202 207 210 200 188 188 195 191 185 190 186 183 190 196 202 201 193 184 185 190 189 193 192 177 171 173 175 174 170 168 161 153 151 148 144
55 52 34 8 335 302 295 287 278 269 252 238 241 243 238 235 235 238 241 242 242 244 247 247 246 243 238 237 236 234 236 237 237 236 231 224 226 226 222 221 222 222 224 224 221 217 212 208 208 207 205 208 210 205 197 196 200 192 187 198 187 185 194 191 194 194 191 192 194 195 194 196 194 182 176 178 175 169 166 164 158 154 149 145 138
37 34 26 18 10 3 355 329 308 293 263 248 248 245 236 232 233 239 242 241 243 246 247 246 243 240 238 237 235 230 230 238 240 238 236 235 234 230 229 231 227 225 226 224 223 224 217 208 207 208 209 213 209 202 200 201 205 201 202 210 179 194 208 181 182 187 189 195 199 199 197 198 199 191 183 182 176 169 165 164 160 157 149 142 138
32 28 27 29 26 26 25 19 19 19 341 264 243 236 233 232 233 238 236 233 242 250 254 257 249 242 244 243 240 235 230 234 238 236 238 240 236 228 232 235 230 225 225 225 226 229 225 215 212 211 212 217 214 205 200 204 210 210 214 228 234 207 201 172 171 178 188 197 202 202 199 196 200 199 190 183 179 173 167 166 165 162 156 150 147
29 25 26 29 30 31 28 27 31 24 10 334 259 242 240 240 242 250 252 246 248 254 261 267 264 257 255 250 247 243 237 237 240 239 239 241 237 232 234 236 232 228 229 228 225 226 228 223 219 217 215 218 218 212 204 201 207 211 216 226 224 200 202 193 187 171 179 200 205 201 199 198 200 202 197 189 183 176 168 169 169 167 164 159 157
30 27 26 25 26 26 23 24 27 22 13 356 302 256 242 242 248 256 259 255 256 265 269 268 270 269 265 258 254 250 244 243 243 242 243 242 237 234 232 230 229 229 230 230 225 223 225 226 224 220 218 221 222 220 211 201 202 206 210 217 215 209 214 211 203 189 179 189 196 197 196 196 199 201 201 196 190 182 173 172 174 174 171 168 167
30 29 27 25 26 25 22 22 20 14 5 349 325 298 269 253 256 263 263 261 264 276 280 274 275 272 266 262 257 250 244 247 249 248 250 246 238 234 230 227 226 227 229 228 225 223 222 225 224 218 216 220 221 221 217 206 204 202 201 208 214 214 217 215 208 206 197 178 179 191 187 187 196 202 202 199 197 192 182 177 178 179 175 173 175
27 26 26 25 26 25 23 24 20 11 360 346 335 326 317 294 272 269 269 270 272 278 281 276 275 272 271 271 267 257 242 242 249 252 254 252 244 237 232 229 227 227 228 225 221 220 219 221 222 217 213 213 215 219 217 207 205 204 201 203 206 206 209 209 209 212 206 189 186 189 183 183 189 195 197 199 200 198 191 184 182 184 179 178 180
25 24 23 20 20 21 19 20 18 12 4 354 344 336 334 325 303 287 281 281 281 281 281 278 279 279 276 274 271 264 252 244 243 246 253 253 249 244 238 234 229 227 228 224 219 218 217 218 220 219 214 210 213 220 219 212 208 206 203 204 206 204 204 205 204 207 209 203 197 189 186 189 187 187 193 198 200 201 198 191 188 188 183 182 183